This demonstration page uses our WeatherBlox Daily Observations layout. Learn more.

Left ArrowRight Arrow

Hourly Observations for June 15, 2020

Temp ( °F °C ) Dew Point ( °F °C ) Humidity (%) Winds ( mph kmh ) Pressure ( in mb ) Visibility ( mi km ) Precip ( " mm )
12:53 am 00:53 Clear 53 11.7 29 -1.7 40 40 SW 24 39 29.80 1009 10 16 N/A
1:53 am 01:53 Cloudy 52 11.1 29 -1.7 41 41 SW 21 33 29.82 1010 10 16 N/A
2:53 am 02:53 Mostly Cloudy 51 10.6 29 -1.7 43 43 SW 21 33 29.83 1010 10 16 N/A
3:53 am 03:53 Mostly Cloudy 49 9.4 29 -1.7 46 46 SW 22 35 29.83 1010 10 16 N/A
4:53 am 04:53 Clear 48 8.9 29 -1.7 48 48 SSW 23 37 29.83 1010 10 16 N/A
5:53 am 05:53 Sunny 49 9.4 29 -1.7 46 46 SSW 24 39 29.84 1010 10 16 N/A
6:53 am 06:53 Sunny 51 10.6 29 -1.7 43 43 SW 29 46 29.85 1011 10 16 N/A
10:53 am 10:53 Sunny 65 18.3 30 -1.1 27 27 SW 25 41 29.79 1009 10 16 N/A
11:53 am 11:53 Sunny 66 18.9 31 -0.6 27 27 SW 17 28 29.78 1009 10 16 N/A
12:53 pm 12:53 Sunny 68 20 32 undefined 26 26 WSW 22 35 29.75 1007 10 16 N/A
1:53 pm 13:53 Sunny 70 21.1 31 -0.6 23 23 WSW 20 32 29.74 1007 10 16 N/A
2:53 pm 14:53 Sunny 71 21.7 31 -0.6 23 23 WSW 24 39 29.73 1007 10 16 N/A
3:53 pm 15:53 Sunny 72 22.2 29 -1.7 20 20 SW 28 45 29.71 1006 10 16 N/A
4:53 pm 16:53 Sunny 74 23.3 28 -2.2 18 18 WSW 21 33 29.80 1009 10 16 N/A
5:53 pm 17:53 Sunny 74 23.3 31 -0.6 20 20 SW 18 30 29.79 1009 10 16 N/A
6:53 pm 18:53 Sunny 72 22.2 33 0.6 24 24 SW 20 31 29.79 1009 10 16 N/A
7:53 pm 19:53 Partly Cloudy 70 21.1 35 1.7 28 28 W 12 19 29.78 1009 10 16 N/A
8:53 pm 20:53 Cloudy 67 19.4 36 2.2 32 32 WSW 8 13 29.80 1009 10 16 N/A
9:53 pm 21:53 Cloudy 61 16.1 45 7.2 56 56 SW 7 11 29.84 1010 10 16 0.00 0.00
10:53 pm 22:53 Cloudy with Rain 56 13.3 50 10 81 81 SSW 9 15 29.86 1011 8 13 0.02 0.51
11:53 pm 23:53 Cloudy with Light Rain 55 12.8 51 10.6 87 87 SW 14 22 29.85 1011 10 16 0.03 0.76

Powered by AerisWeather